Weather History for Cut Bank, MT

Change the Weather History Date:

Tuesday, December 11, 2012

  Actual Average Record
Temperature  
Mean Temperature 35 °F 22 °F  
Max Temperature 40 °F 32 °F 59 °F (1939)
Min Temperature 29 °F 12 °F -34 °F (1932)
Degree Days  
Heating Degree Days 30 43  
Month to date heating degree days 386 457  
Since 1 July heating degree days 2526 2720  
Cooling Degree Days 0 0  
Month to date cooling degree days 0 0  
Year to date cooling degree days 210 162  
Moisture  
Dew Point 24 °F    
Average Humidity 60    
Maximum Humidity 69    
Minimum Humidity 50    
Precipitation  
Precipitation 0.00 in 0.01 in 0.37 in (1946)
Month to date precipitation 0.05 0.08  
Year to date precipitation 9.04 10.76  
Snow  
Snow 0.00 in - - ()
Snow Depth T in    
Sea Level Pressure  
Sea Level Pressure 29.54 in    
Wind  
Wind Speed 20 mph (WSW)    
Max Wind Speed 40 mph    
Max Gust Speed 49 mph    
Visibility 10 miles    
Events      
T = Trace of Precipitation, MM = Missing Value Source: NWS Daily Summary

Daily Weather History Graph

Daily Weather History Graph

Search for Another Location

Airport:

Trip Planner

Search our weather history database for the weather conditions in past years. The results will help you decide how hot, cold, wet, or windy it might be!

Date:

Astronomy

Dec. 11, 2012 Rise Set
Actual Time 8:12 AM MST 4:33 PM MST
Civil Twilight 7:35 AM MST 5:10 PM MST
Nautical Twilight 6:55 AM MST 5:50 PM MST
Astronomical Twilight 6:17 AM MST 6:28 PM MST
Moon 6:07 AM MST (12/11) 3:19 PM MST (12/11)
Length of Visible Light 9h 35m
Length of Day
8h 21m
Waning Crescent, 4% of the Moon is Illuminated
Dec 11
Waning Crescent
Dec 13
New
Dec 19
First Quarter
Dec 28
Full
Jan 4
Last Quarter

Hourly Weather History & Observations

Time (MST) Temp. Windchill Dew Point Humidity Pressure Visibility Wind Dir Wind Speed Gust Speed Precip Events Conditions
12:56 AM 30.9 °F 17.5 °F 21.9 °F 69% 29.79 in 10.0 mi WSW 24.2 mph 31.1 mph N/A   Clear
1:56 AM 33.1 °F 19.8 °F 23.0 °F 66% 29.76 in 10.0 mi West 26.5 mph - N/A   Clear
2:56 AM 33.1 °F 20.3 °F 23.0 °F 66% 29.74 in 10.0 mi WSW 24.2 mph 36.8 mph N/A   Clear
3:56 AM 34.0 °F 20.3 °F 23.0 °F 64% 29.68 in 10.0 mi WSW 29.9 mph 41.4 mph N/A   Clear
4:56 AM 35.1 °F 22.5 °F 23.0 °F 61% 29.65 in 10.0 mi WSW 26.5 mph 39.1 mph N/A   Mostly Cloudy
5:56 AM 36.0 °F 22.6 °F 24.1 °F 62% 29.62 in 10.0 mi WSW 32.2 mph 43.7 mph N/A   Scattered Clouds
6:56 AM 37.0 °F 24.9 °F 24.1 °F 59% 29.57 in 10.0 mi WSW 27.6 mph 34.5 mph N/A   Overcast
7:56 AM 37.0 °F 24.3 °F 24.1 °F 59% 29.53 in 10.0 mi WSW 31.1 mph 39.1 mph N/A   Scattered Clouds
8:56 AM 37.0 °F 23.7 °F 24.1 °F 59% 29.51 in 10.0 mi WSW 34.5 mph 41.4 mph N/A   Clear
9:56 AM 37.4 °F 24.6 °F 24.8 °F 60% 29.45 in 10.0 mi WSW 32.2 mph 40.3 mph N/A   Clear
10:56 AM 37.0 °F 24.9 °F 25.0 °F 62% 29.49 in 10.0 mi WSW 27.6 mph 33.4 mph N/A   Clear
11:56 AM 37.9 °F 26.8 °F 24.1 °F 57% 29.46 in 10.0 mi WSW 24.2 mph 31.1 mph N/A   Clear
12:56 PM 37.9 °F 28.9 °F 25.0 °F 60% 29.45 in 10.0 mi WSW 16.1 mph 27.6 mph N/A   Clear
1:56 PM 39.0 °F 29.6 °F 24.1 °F 55% 29.46 in 10.0 mi West 18.4 mph - N/A   Clear
2:56 PM 39.0 °F 31.4 °F 23.0 °F 53% 29.46 in 10.0 mi West 12.7 mph - N/A   Mostly Cloudy
3:56 PM 37.0 °F 27.7 °F 25.0 °F 62% 29.47 in 10.0 mi West 16.1 mph - N/A   Clear
4:56 PM 34.0 °F 26.0 °F 25.0 °F 70% 29.48 in 10.0 mi WSW 10.4 mph - N/A   Partly Cloudy
5:56 PM 33.1 °F 23.9 °F 23.0 °F 66% 29.48 in 10.0 mi WSW 12.7 mph - N/A   Clear
6:56 PM 33.1 °F 23.0 °F 23.0 °F 66% 29.49 in 10.0 mi West 15.0 mph - N/A   Clear
7:56 PM 33.1 °F 26.1 °F 23.0 °F 66% 29.49 in 10.0 mi SW 8.1 mph - N/A   Mostly Cloudy
8:56 PM 33.1 °F 25.5 °F 23.0 °F 66% 29.49 in 10.0 mi West 9.2 mph - N/A   Scattered Clouds
9:56 PM 33.1 °F 25.5 °F 25.0 °F 72% 29.49 in 10.0 mi West 9.2 mph - N/A   Overcast
10:56 PM 33.1 °F 27.7 °F 25.0 °F 72% 29.51 in 10.0 mi WNW 5.8 mph - N/A   Overcast
11:56 PM 28.9 °F - 23.0 °F 78% 29.52 in 10.0 mi Calm Calm - N/A   Overcast